Flag for U.S.A. Weather past 2 weeks in Fairfax, Virginia, U.S.A.

Now
86 °F

Broken clouds.


Feels Like: 92 °F
Forecast: 71 / 91 °F
Wind: 7 mph from Southwest

Location: Washington-Dulles International Airport

Current Time: Jul 23, 2014 at 7:21:27 PM

Latest Report: Jul 23, 2014 at 6:52 PM


Visibility: 10 mi

Pressure: 29.81 "Hg

Humidity: 61%

Dew point: 71 °F

Location of FairfaxLocation

Historic Weather in Fairfax — Graph

°F

Fairfax temperature yesterday

Maximum temperature yesterday: 80 °F (at 12:52 PM)
Minimum temperature yesterday: 71 °F (at 12:52 AM)
Average temperature yesterday: 74 °F

Past Weeks' High & Low Weather Summary

 TemperatureHumidityPressure
High92 °F (Jul 23, 2:52 PM)100% (Jul 10, 4:52 AM)30.24 "Hg (Jul 10, 4:52 AM)
Low56 °F (Jul 17, 5:52 AM)37% (Jul 17, 6:52 PM)29.72 "Hg (Jul 8, 5:52 PM)
Average74 °F73%30.04 "Hg
* Reported Jul 8 5:52 PM — Jul 23 5:52 PM, Fairfax, Weather by CustomWeather, © 2014

Note: Actual official high and low records may vary slightly from our data, if they occured in-between our weather recording intervals... More about our weather records

Advertising

Fairfax weather history for previous 24 hours

 ConditionsComfort  
Time TempWeatherWind HumidityBarometerVisibility
5:52 PM
Jul 23
88 °FBroken clouds.9 mph55%29.80 "Hg10 mi
4:52 PM90 °FBroken clouds.12 mph52%29.83 "Hg10 mi
3:52 PM91 °FBroken clouds.13 mph49%29.84 "Hg10 mi
2:52 PM92 °FBroken clouds.15 mph47%29.87 "Hg10 mi
1:52 PM91 °FScattered clouds.10 mph54%29.89 "Hg10 mi
12:52 PM89 °FScattered clouds.9 mph55%29.92 "Hg10 mi
11:52 AM87 °FScattered clouds.7 mph59%29.93 "Hg10 mi
10:52 AM84 °FScattered clouds.7 mph67%29.96 "Hg10 mi
9:52 AM81 °FPassing clouds.No wind72%29.98 "Hg10 mi
8:52 AM76 °FScattered clouds.No wind82%30.00 "Hg10 mi
6:52 AM72 °FPassing clouds.6 mph91%30.00 "Hg10 mi
5:52 AM71 °FPassing clouds.8 mph93%29.99 "Hg10 mi
4:52 AM71 °FPassing clouds.7 mph90%30.00 "Hg10 mi
3:52 AM71 °FPassing clouds.6 mph90%30.02 "Hg10 mi
1:52 AM73 °FClear.6 mph84%30.04 "Hg10 mi
12:52 AM74 °FClear.7 mph85%30.06 "Hg10 mi
11:52 PM
Jul 22
74 °FClear.5 mph85%30.06 "Hg10 mi
10:52 PM75 °FPassing clouds.5 mph82%30.08 "Hg10 mi
9:52 PM76 °FPassing clouds.5 mph80%30.09 "Hg10 mi
8:52 PM77 °FSunny.5 mph77%30.08 "Hg10 mi
7:52 PM80 °FScattered clouds.9 mph69%30.06 "Hg10 mi
Weather by CustomWeather, © 2014

See weather overviewHow to use our weather pages